Temperature
16 16 16 16 15 15 15 15 15 15 15 14 14 14 14 14 14 14 14 14 14 13 13 13 13 13 13 13 13 13 13 13 12 12 12 12 12 12 12 11 11 11 11
16 16 16 16 15 15 15 15 15 15 15 14 14 14 14 14 14 14 13 13 13 13 13 13 13 13 13 12 12 12 12 12 12 12 11 11 11 11 11 11 11 11 11
16 16 16 15 15 15 15 15 15 15 14 14 14 14 14 14 14 13 13 13 13 13 13 13 13 13 13 12 12 12 12 12 11 11 11 11 11 11 11 11 10 10 10
16 16 16 15 15 15 15 15 14 14 14 14 14 14 13 13 13 13 13 13 13 13 13 13 13 12 12 12 12 12 12 11 11 11 11 10 10 10 10 10 10 10 10
16 16 16 15 15 15 15 15 14 14 14 14 14 13 13 13 13 13 13 13 13 13 13 12 12 12 12 12 12 12 11 11 11 11 10 10 10 10 10 10 9 10 10
16 16 16 15 15 15 15 14 14 14 14 14 14 13 13 13 13 13 13 13 12 12 12 12 12 12 12 12 11 11 11 11 10 10 10 10 10 9 9 9 9 9 9
16 16 16 15 15 15 15 14 14 14 14 13 13 13 13 13 13 13 12 12 12 12 12 12 12 11 11 11 11 11 11 10 10 10 10 9 9 9 9 9 9 8 8
16 16 16 15 15 15 15 14 14 14 14 13 13 13 13 13 13 12 12 12 12 12 11 11 11 11 11 11 11 11 10 10 9 9 9 9 9 9 8 8 8 8 8
16 16 15 15 15 15 14 14 14 14 14 13 13 13 13 13 12 12 12 12 12 11 11 11 11 11 11 10 10 10 10 9 9 9 9 9 8 8 8 8 8 8 7
16 15 15 15 15 15 14 14 14 14 13 13 13 13 12 12 12 12 12 12 11 11 11 11 11 10 10 10 10 10 9 9 9 9 8 8 8 8 7 7 7 7 6
15 15 15 15 15 15 14 14 14 13 13 13 12 12 12 12 12 12 12 11 11 11 11 10 10 10 10 10 9 9 9 9 8 8 8 8 7 7 7 7 6 6 6
15 15 15 14 14 14 14 14 13 13 13 12 12 12 12 12 12 11 11 11 11 11 10 10 10 10 9 9 9 9 8 8 8 8 7 7 7 7 6 6 6 6 5
15 15 14 14 14 14 14 13 13 13 13 12 12 12 12 11 11 11 11 11 11 10 10 10 9 9 9 9 8 8 8 8 7 7 7 6 6 6 6 6 5 5 5
15 14 14 14 13 13 13 13 13 13 12 12 12 12 11 11 11 11 11 11 10 10 10 9 9 9 8 8 8 8 7 7 7 6 6 6 6 5 5 5 5 5 4
14 14 14 13 13 13 13 13 13 13 12 12 12 12 11 11 11 11 10 10 10 10 9 9 9 8 8 7 7 7 7 6 6 6 6 5 5 5 5 4 4 4 3
14 13 13 13 13 13 13 12 12 12 12 12 11 11 11 11 11 10 10 10 9 9 9 8 8 8 7 7 7 6 6 6 6 5 5 5 5 4 4 4 3 3 3
13 13 13 13 13 12 12 12 12 12 11 11 11 11 11 10 10 10 10 9 9 9 8 8 7 7 7 6 6 6 5 5 5 5 4 4 4 4 3 3 3 2 2
13 13 13 13 12 12 12 12 12 12 11 11 11 11 10 10 10 10 9 9 8 8 8 7 7 6 6 6 5 5 5 5 4 4 4 4 3 3 3 2 2 2 2
13 13 12 12 12 12 12 11 11 11 11 11 11 10 10 10 9 9 9 8 8 8 7 7 6 6 6 5 5 5 4 4 4 4 3 3 3 2 2 2 2 1 1
12 12 12 12 12 11 11 11 11 11 11 10 10 10 10 9 9 9 8 8 7 7 7 6 6 6 5 5 5 4 4 4 3 3 3 3 2 2 2 1 1 1 1
12 12 12 11 11 11 11 11 10 10 10 10 10 10 9 9 8 8 8 7 7 7 6 6 6 5 5 5 4 4 4 3 3 3 2 2 2 2 1 1 1 1 0
11 11 11 11 11 11 10 10 10 10 10 9 9 9 9 8 8 8 7 7 7 6 6 5 5 5 4 4 4 3 3 3 2 2 2 2 1 1 1 1 0 0 -0
11 11 11 10 10 10 10 10 10 9 9 9 9 8 8 8 8 7 7 7 6 6 5 5 5 4 4 4 3 3 3 2 2 2 2 1 1 1 0 0 -0 -0 -0
11 10 10 10 10 10 9 9 9 9 9 8 8 8 8 8 7 7 6 6 6 5 5 5 4 4 3 3 3 3 2 2 2 2 1 1 1 0 0 -0 -0 -1 -1
10 10 10 10 9 9 9 9 9 8 8 8 8 8 7 7 7 6 6 5 5 5 5 4 4 3 3 3 2 2 2 2 2 1 1 1 0 -0 -0 -1 -1 -1 -1
10 10 10 9 9 9 8 8 8 8 8 8 7 7 7 6 6 6 5 5 5 4 4 4 3 3 2 2 2 2 2 1 1 1 1 0 -0 -0 -1 -1 -1 -1 -1
Wind_Speed
6 6 6 5 4 3 4 4 4 4 3 3 4 4 3 3 3 3 3 3 4 4 4 4 4 4 4 4 4 4 4 3 2 2 3 3 4 4 5 6 5 4 4
6 6 6 6 5 4 4 5 4 4 3 3 4 4 3 3 3 3 3 3 3 4 4 4 4 4 5 4 4 4 4 3 2 2 3 3 4 3 3 4 6 6 4
6 6 6 6 5 4 5 4 4 4 4 4 4 4 4 3 3 3 3 3 3 4 5 5 5 5 5 4 4 4 4 4 3 2 2 3 3 3 4 5 6 6 6
7 7 6 6 5 5 5 4 4 4 4 4 4 4 4 3 4 3 3 2 3 4 5 5 5 5 5 4 5 4 4 4 3 3 2 3 3 3 4 4 5 4 5
8 7 6 6 6 5 4 4 4 3 3 4 5 4 4 4 3 3 2 2 3 4 4 5 5 7 8 6 5 4 4 3 3 3 3 3 3 4 4 4 5 4 4
8 7 7 7 6 5 5 5 5 4 3 4 5 5 4 3 4 6 4 3 3 3 3 3 4 5 6 7 8 7 5 3 3 2 2 3 4 3 3 5 4 5 5
8 8 7 7 6 5 5 5 5 4 3 4 4 5 5 4 4 5 5 3 3 3 3 3 3 4 5 3 4 5 5 5 3 2 2 3 3 4 4 5 5 5 5
9 8 7 7 7 6 5 5 4 4 4 4 4 4 5 4 4 4 3 2 2 3 3 3 3 3 4 3 3 3 2 3 3 2 1 2 3 3 3 4 5 5 5
9 9 8 8 7 6 6 5 4 4 4 4 4 4 4 3 3 3 2 1 2 2 2 3 3 3 6 6 3 3 3 3 4 4 5 6 7 8 8 4 5 4 5
8 8 8 8 7 7 6 5 4 4 4 5 4 4 4 4 4 3 2 1 1 1 2 2 4 4 5 5 3 2 3 4 4 5 5 6 6 7 8 4 3 3 4
8 8 8 8 8 7 6 5 5 4 4 4 5 4 4 5 5 4 3 1 1 1 1 1 1 3 3 3 3 2 3 4 3 4 3 3 3 3 5 6 5 2 3
8 8 8 8 8 7 6 5 5 5 5 4 4 3 3 4 4 4 4 3 1 1 1 1 1 1 1 2 2 4 6 6 3 3 3 4 4 4 4 6 7 8 7
8 8 8 8 7 7 7 6 5 5 4 4 4 3 2 3 3 5 5 3 2 1 1 1 0 1 1 2 3 4 4 2 2 3 3 4 4 4 4 5 7 9 9
9 9 8 8 7 6 5 5 5 4 4 4 4 4 3 3 3 3 3 2 2 1 1 1 2 2 2 2 3 3 2 2 2 3 3 4 4 4 3 3 4 5 5
9 8 7 7 7 6 5 4 4 4 5 5 4 4 4 3 3 4 4 3 2 2 1 1 1 1 1 2 2 2 2 2 3 3 3 4 4 4 4 4 4 4 5
8 7 6 6 6 6 6 4 4 4 5 5 5 5 3 5 5 5 4 3 2 1 1 1 1 1 1 2 2 2 2 2 3 3 3 3 4 4 5 5 4 5 6
8 7 6 6 6 6 6 6 4 3 4 4 5 5 5 6 6 5 4 2 1 1 1 1 1 2 2 2 2 2 3 3 3 3 3 4 4 4 5 5 5 5 7
7 7 7 5 6 6 6 6 6 6 4 2 2 5 6 7 6 5 4 3 0 1 1 2 2 2 2 2 2 2 2 3 3 3 4 4 4 4 5 5 5 6 7
6 5 5 5 5 5 5 5 5 5 5 4 3 3 5 5 5 5 4 2 2 2 2 2 2 2 2 2 2 2 2 3 3 3 3 4 4 4 5 6 6 9 8
5 7 6 5 5 5 5 5 5 5 5 5 5 4 4 3 3 3 3 3 2 2 2 2 2 2 2 1 2 2 3 3 3 3 3 3 4 4 6 7 7 7 7
5 6 7 5 5 4 4 4 5 4 4 4 4 6 7 5 4 4 4 3 3 3 2 2 1 1 1 1 1 2 3 3 3 3 3 3 4 5 6 6 7 7 8
5 5 5 4 4 4 4 4 4 4 4 4 4 5 8 5 4 4 3 3 3 2 1 1 1 1 1 1 2 2 3 3 3 3 4 4 5 6 6 6 7 7 8
5 5 4 4 4 5 4 4 4 4 4 4 4 4 4 4 3 3 3 3 2 1 1 0 0 1 1 2 2 2 2 2 3 4 4 5 6 6 6 7 8 9 8
4 5 5 4 4 4 4 4 4 4 4 4 4 4 4 4 3 3 2 2 2 1 1 0 1 1 2 3 3 3 3 4 6 6 7 6 6 6 6 7 8 9 9
4 4 4 4 4 4 4 4 4 4 4 4 4 4 4 4 3 3 3 2 2 1 1 0 1 2 3 3 3 4 6 7 7 8 8 7 7 7 7 8 8 9 9
4 4 4 4 4 4 4 4 4 4 4 4 3 3 3 3 3 3 3 2 2 1 1 1 2 3 3 3 4 5 7 8 9 10 9 8 7 7 7 7 9 9 9
Wind_Direction
153 143 140 135 127 134 125 120 116 114 117 114 105 102 91 77 77 73 68 54 50 47 51 57 43 41 34 29 22 23 35 56 60 352 2 11 26 18 15 10 8 25 37
152 146 143 135 135 147 130 126 124 126 130 120 113 110 107 93 79 73 69 56 60 54 50 55 52 49 36 30 26 24 24 34 68 17 348 360 7 360 3 352 359 0 358
146 141 138 142 143 136 122 126 135 135 132 119 114 103 90 81 74 67 70 48 57 60 55 51 48 51 40 27 30 25 14 20 32 39 352 359 358 359 1 349 355 352 344
150 146 143 142 136 135 135 137 132 128 127 125 114 104 97 81 63 51 49 54 63 65 67 66 59 54 45 29 32 20 20 17 17 29 10 356 353 351 9 351 343 339 338
148 147 148 142 136 137 136 133 117 108 109 110 106 99 87 78 51 43 36 56 74 81 80 82 77 74 63 53 44 24 21 21 15 21 7 1 357 358 349 338 340 327 324
153 151 142 141 137 137 136 126 117 111 111 112 113 105 92 83 56 49 42 31 54 76 92 98 97 81 69 56 49 42 29 27 18 14 7 358 345 345 340 339 333 334 323
152 142 142 142 136 140 138 124 126 129 119 111 109 110 105 87 68 52 43 47 57 54 59 71 65 64 63 52 27 20 13 19 25 34 18 346 337 337 339 332 324 318 301
150 144 143 140 141 141 135 136 140 130 123 118 109 112 116 107 90 75 57 53 78 69 55 58 73 63 46 45 30 14 1 0 7 17 353 315 325 327 320 313 302 307 301
148 151 152 149 147 145 146 151 146 136 130 129 122 122 119 112 103 86 62 65 97 87 69 52 65 69 39 38 34 3 348 334 349 343 328 319 325 331 338 343 336 334 318
153 153 150 148 149 152 151 150 143 139 143 136 135 141 141 137 135 123 108 95 109 110 96 79 70 74 48 38 34 358 337 325 339 337 328 326 331 332 333 330 312 320 316
148 144 144 149 154 150 146 146 142 143 146 147 150 154 145 140 149 145 136 134 111 94 102 97 84 83 62 29 7 339 322 324 324 323 319 319 321 323 323 319 321 304 299
145 146 149 155 157 150 146 148 149 149 155 158 152 149 135 138 142 151 150 150 123 105 94 104 113 81 51 337 326 322 333 339 329 327 324 321 319 312 309 327 325 318 304
147 150 151 152 148 148 153 156 158 159 162 166 159 159 152 144 143 142 152 159 154 162 153 131 279 294 297 300 304 319 333 328 318 310 305 302 302 305 323 332 327 320 312
150 153 154 155 149 145 147 151 155 165 168 170 169 166 161 153 147 152 165 171 175 203 260 265 273 276 287 297 308 309 305 292 297 287 298 299 309 321 321 317 315 315 312
152 155 155 149 147 145 141 147 159 167 174 174 175 170 166 173 176 163 165 174 180 201 215 239 254 271 283 290 294 285 280 297 299 295 299 307 314 316 311 312 312 315 310
160 161 159 155 152 150 143 120 79 120 135 141 146 153 150 150 148 143 145 148 160 188 180 211 236 245 249 264 278 291 295 291 291 292 296 302 304 307 309 313 314 312 306
161 160 159 161 161 161 158 155 146 93 86 109 135 141 149 151 145 143 136 135 166 169 168 228 245 254 261 266 268 273 282 285 290 297 295 294 298 304 310 313 314 311 307
156 156 158 160 164 167 170 169 167 166 166 156 154 163 163 163 160 154 141 115 128 191 209 232 250 262 265 265 269 278 287 299 303 302 300 300 302 307 311 311 309 308 307
154 156 159 158 161 168 170 169 170 169 165 160 151 154 166 162 162 167 159 182 206 220 229 240 252 262 268 269 275 282 287 288 294 297 300 305 307 309 310 308 306 305 305
157 162 159 159 164 170 174 173 171 170 171 171 169 163 161 156 169 184 197 211 213 222 229 238 251 260 270 281 286 288 288 287 290 292 299 303 307 308 304 303 304 305 301
154 161 163 166 170 172 171 172 173 174 175 174 172 166 168 185 191 191 197 204 212 222 222 223 237 257 269 291 297 297 299 297 298 301 304 305 308 304 300 298 299 301 302
156 164 171 172 164 160 165 173 173 174 176 172 167 166 172 182 188 194 198 202 208 209 190 184 215 247 250 264 280 290 297 302 312 316 310 306 303 300 298 299 302 304 306
161 165 166 165 161 162 173 179 178 178 175 174 170 164 176 191 196 197 192 187 188 179 143 102 255 285 303 310 309 307 302 312 321 322 317 311 307 303 301 301 301 304 305
162 165 168 169 168 172 181 182 178 175 174 176 177 176 183 197 198 189 175 166 161 164 168 186 274 293 319 333 336 334 341 340 337 330 316 304 300 299 298 298 299 299 302
166 169 171 173 175 178 182 181 180 179 180 184 185 185 187 189 188 181 172 160 156 174 207 258 287 293 306 323 335 338 333 332 329 322 315 304 294 294 297 297 299 301 301
167 172 174 174 177 180 181 183 184 184 186 186 187 191 186 181 181 174 163 154 159 176 215 261 291 311 319 326 327 327 326 324 319 317 314 304 298 297 300 299 300 302 302
Height
1555 1557 1559 1560 1562 1563 1564 1565 1566 1567 1568 1569 1570 1570 1571 1571 1572 1572 1572 1572 1572 1573 1572 1572 1572 1572 1571 1571 1571 1570 1570 1569 1568 1568 1567 1566 1565 1563 1561 1560 1558 1557 1555
1554 1556 1558 1559 1561 1562 1564 1565 1566 1567 1568 1569 1569 1570 1571 1572 1572 1572 1572 1573 1573 1573 1573 1573 1572 1572 1571 1571 1571 1570 1569 1569 1568 1567 1566 1565 1564 1562 1561 1559 1558 1556 1554
1552 1555 1557 1558 1560 1562 1563 1564 1566 1567 1568 1569 1569 1570 1571 1571 1572 1572 1573 1573 1573 1573 1573 1573 1572 1572 1572 1571 1570 1570 1569 1568 1568 1567 1566 1565 1563 1562 1560 1558 1557 1555 1553
1551 1553 1555 1557 1559 1561 1562 1564 1565 1566 1567 1568 1569 1569 1570 1571 1572 1572 1572 1573 1573 1573 1573 1573 1572 1572 1571 1571 1570 1569 1568 1568 1567 1566 1565 1564 1562 1561 1559 1557 1555 1553 1551
1549 1551 1553 1556 1558 1559 1561 1563 1564 1565 1567 1567 1568 1569 1569 1570 1571 1571 1572 1572 1572 1572 1572 1572 1572 1572 1571 1570 1569 1568 1567 1567 1566 1565 1564 1562 1561 1559 1557 1555 1553 1551 1549
1547 1550 1552 1554 1556 1558 1560 1561 1563 1564 1565 1566 1567 1568 1568 1569 1570 1571 1571 1571 1572 1572 1572 1572 1572 1571 1570 1570 1569 1568 1567 1566 1565 1564 1562 1561 1559 1558 1556 1554 1552 1549 1546
1546 1548 1550 1553 1554 1556 1558 1560 1561 1563 1564 1565 1566 1566 1567 1568 1569 1570 1570 1570 1571 1571 1571 1571 1571 1570 1569 1569 1568 1567 1566 1565 1565 1563 1561 1560 1558 1556 1554 1552 1550 1547 1545
1544 1546 1548 1550 1552 1554 1556 1558 1560 1561 1562 1564 1565 1565 1566 1567 1568 1568 1569 1569 1569 1570 1570 1570 1569 1569 1568 1568 1567 1565 1565 1564 1563 1561 1560 1558 1557 1555 1553 1551 1548 1546 1543
1541 1543 1546 1548 1550 1552 1554 1556 1558 1559 1561 1562 1563 1564 1565 1566 1566 1567 1568 1568 1568 1568 1568 1568 1568 1567 1567 1566 1565 1564 1563 1562 1561 1560 1558 1556 1554 1552 1550 1548 1545 1542 1539
1538 1541 1544 1546 1548 1550 1552 1554 1556 1557 1559 1560 1561 1562 1563 1564 1565 1566 1566 1566 1567 1567 1567 1567 1566 1566 1565 1564 1563 1562 1560 1559 1558 1556 1555 1553 1552 1550 1548 1546 1543 1540 1537
1536 1539 1541 1544 1546 1548 1550 1552 1554 1555 1557 1558 1559 1561 1562 1563 1563 1564 1565 1565 1565 1565 1564 1564 1564 1564 1563 1562 1561 1560 1558 1557 1555 1554 1552 1550 1548 1547 1545 1543 1541 1538 1535
1534 1537 1539 1542 1544 1546 1548 1550 1552 1553 1555 1556 1558 1559 1560 1561 1562 1562 1562 1563 1563 1562 1562 1562 1562 1561 1560 1560 1559 1557 1556 1555 1553 1551 1549 1547 1545 1543 1541 1539 1537 1535 1532
1532 1534 1536 1539 1541 1543 1546 1548 1549 1551 1553 1554 1555 1557 1558 1558 1559 1560 1560 1560 1560 1560 1560 1560 1559 1559 1558 1557 1556 1555 1553 1552 1550 1548 1546 1544 1542 1540 1538 1535 1533 1530 1528
1529 1531 1534 1536 1539 1541 1543 1545 1547 1548 1550 1551 1553 1554 1555 1556 1556 1557 1557 1557 1557 1557 1557 1557 1556 1556 1555 1554 1553 1552 1550 1549 1547 1545 1543 1541 1539 1536 1534 1531 1528 1525 1522
1526 1529 1531 1534 1536 1538 1540 1543 1544 1546 1548 1549 1550 1551 1552 1553 1554 1554 1554 1554 1554 1554 1554 1553 1553 1552 1552 1551 1549 1548 1547 1545 1544 1542 1540 1537 1535 1532 1530 1527 1524 1521 1518
1524 1526 1529 1531 1533 1535 1537 1540 1542 1544 1545 1547 1548 1549 1549 1551 1551 1551 1552 1552 1551 1551 1551 1550 1549 1549 1548 1547 1546 1544 1543 1542 1540 1538 1536 1534 1531 1528 1526 1523 1520 1517 1514
1521 1523 1526 1528 1530 1532 1534 1536 1538 1540 1542 1543 1544 1546 1547 1547 1548 1548 1549 1549 1549 1548 1547 1547 1546 1545 1544 1543 1542 1541 1539 1538 1536 1534 1532 1530 1527 1525 1522 1519 1516 1513 1510
1518 1521 1523 1525 1527 1529 1531 1533 1535 1536 1538 1539 1541 1542 1543 1544 1545 1545 1545 1545 1545 1544 1544 1543 1543 1542 1541 1540 1539 1537 1536 1534 1532 1530 1528 1526 1523 1521 1518 1515 1512 1509 1505
1515 1518 1520 1522 1524 1526 1528 1530 1532 1533 1535 1536 1537 1539 1540 1540 1541 1541 1541 1541 1541 1540 1540 1539 1539 1538 1537 1536 1535 1533 1532 1530 1528 1526 1524 1522 1519 1516 1513 1511 1508 1504 1501
1513 1515 1517 1519 1522 1524 1525 1527 1528 1530 1531 1533 1534 1535 1535 1536 1536 1537 1537 1537 1537 1536 1536 1535 1535 1534 1533 1532 1531 1529 1528 1526 1524 1522 1519 1517 1514 1512 1509 1506 1503 1500 1496
1510 1512 1515 1517 1518 1520 1522 1524 1525 1526 1528 1529 1530 1531 1532 1532 1533 1533 1533 1533 1533 1532 1532 1531 1531 1530 1529 1528 1526 1525 1523 1521 1520 1517 1515 1512 1510 1507 1504 1501 1498 1495 1491
1507 1509 1511 1514 1515 1517 1519 1520 1522 1523 1524 1525 1527 1528 1528 1529 1529 1529 1529 1529 1529 1529 1528 1527 1527 1526 1525 1524 1522 1520 1519 1517 1515 1513 1510 1507 1505 1502 1499 1496 1493 1490 1486
1504 1506 1508 1510 1512 1514 1516 1517 1519 1520 1521 1522 1523 1524 1524 1525 1525 1525 1525 1525 1525 1524 1524 1523 1523 1522 1521 1519 1518 1516 1514 1512 1510 1508 1505 1502 1499 1496 1494 1491 1488 1484 1481
1502 1504 1505 1507 1509 1510 1512 1513 1515 1516 1517 1518 1519 1520 1520 1521 1521 1521 1521 1521 1521 1520 1520 1519 1519 1518 1516 1515 1513 1512 1510 1508 1505 1503 1500 1497 1494 1491 1488 1485 1482 1479 1476
1499 1500 1502 1503 1505 1507 1508 1510 1511 1512 1513 1514 1515 1516 1516 1516 1517 1517 1517 1517 1516 1516 1515 1515 1514 1513 1512 1510 1509 1507 1505 1503 1500 1497 1494 1491 1488 1486 1483 1480 1477 1474 1471
1495 1497 1499 1500 1502 1503 1504 1506 1507 1508 1509 1510 1511 1512 1512 1512 1512 1513 1513 1512 1512 1512 1511 1510 1509 1509 1507 1506 1504 1502 1500 1497 1495 1492 1489 1486 1483 1480 1478 1475 1472 1469 1465